Tracking 22454 objects as of 5-Mar-2021
HD Live streaming from Space Station
objects crossing your sky now

FREGAT DEB

Track FREGAT DEB now!
10-day predictions


NORAD ID: 46618
Int'l Code: 2011-037MJ
Perigee: 830.6 km
Apogee: 4,880.7 km
Inclination: 51.8 °
Period: 147.0 minutes
Semi major axis: 9226 km
RCS: Unknown
Launch date: July 18, 2011
Source: Commonwealth of Independent States (former USSR) (CIS)
Launch site: TYURATAM MISSILE AND SPACE COMPLEX (TTMTR)

Note: This is SATELLITE DEBRIS
aabbcc
Your satellite tracking list
Your tracking list is empty




NASA's NSSDC Master Catalog

Two Line Element Set (TLE):
1 46618U 11037MJ  21060.60849094 -.00002596  00000-0 -10039-1 0  9994
2 46618  51.7749 265.8484 2194776  24.6781 344.4693  9.79567750 15599
Source of the keplerian elements: AFSPC